#timestamp,LO_Frequency,Hit,StdDev 
1568498415.8,286047001.2,N
1568498435.6,286047000.4,N
1568498455.4,286046998.2,N
1568498475.3,286046999.8,N
1568498495.1,286046999.7,N
1568498515.8,286047001.8,N
1568498535.7,286047005.9,N
1568498555.5,286047003.1,N
1568498575.4,286047004.7,N
1568498595.2,286047007.2,N
1568498615.0,286047008.7,N
1568498615.9,286047008.7,N
1568498635.8,286047008.0,N
1568498655.6,286047008.4,N
1568498675.4,286047009.2,N
1568498695.3,286047008.8,N
1568498715.1,286047009.1,N
1568498735.9,286047006.2,N
1568498755.7,286047006.6,N
1568498775.5,286047009.2,N
1568498795.4,286047006.5,N
1568498815.2,286047008.6,N
1568498835.0,286047010.4,N
1568498835.9,286047010.4,N
1568498855.8,286047008.9,N
1568498875.6,286047006.9,N
1568498895.5,286047007.1,N
1568498915.3,286047004.5,N
1568498935.1,286047003.0,N
1568498955.9,286047003.4,N
1568498975.7,286047004.9,N
1568498995.6,286047006.9,N
1568499015.4,286047006.4,N
1568499035.2,286047007.3,N
1568499055.1,286047008.0,Y
1568499056.0,286047008.0,P
1568499075.8,286047005.0,P
1568499095.6,286047004.9,P
1568499115.5,286047002.9,N
1568499135.3,286047003.9,N
1568499155.2,286047002.1,N
1568499175.9,286047001.0,N
1568499195.7,286047000.1,N
1568499215.6,286047000.0,N
1568499235.4,286047002.6,N
1568499255.2,286047001.3,N
1568499275.1,286047003.3,N
1568499276.0,286047003.3,N
1568499295.8,286047003.2,N
1568499315.7,286047002.7,N
1568499335.5,286046998.5,N
1568499355.3,286047001.1,N
1568499375.2,286047002.4,N
1568499395.0,286047002.7,N
1568499395.9,286047002.7,N
1568499415.7,286047001.7,N
1568499435.6,286047005.1,N
1568499455.4,286047004.6,N
1568499475.3,286047005.3,N
1568499495.1,286047004.7,N
1568499496.0,286047004.7,N
1568499515.8,286047003.5,N
1568499535.7,286047005.3,N
1568499555.5,286047005.5,N
1568499575.3,286047005.4,N
1568499595.2,286047003.3,N
1568499615.0,286047004.1,N
1568499615.9,286047004.1,N
1568499635.8,286047004.6,N
1568499655.6,286047008.3,Y
1568499675.4,286047006.4,P
1568499695.3,286047009.1,P
1568499715.1,286047007.8,P
1568499735.9,286047007.7,Y
1568499755.7,286047002.7,P
1568499775.5,286047003.6,N
1568499795.4,286047002.0,N
1568499815.2,286047003.3,N
1568499835.0,286047005.8,Y
1568499835.9,286047005.8,P
1568499855.8,286047002.4,N
1568499875.6,286047002.5,N
1568499895.5,286047004.0,N
1568499915.3,286047004.3,Y
1568499935.1,286047000.4,P
1568499955.9,286046998.8,N
1568499975.7,286046998.0,N
1568499995.5,286046997.3,N
1568500015.4,286046997.0,N
1568500035.2,286046999.6,N
1568500055.1,286046998.6,N
1568500056.0,286046998.6,N
1568500075.8,286046998.3,N
1568500095.6,286047000.2,N
1568500115.5,286047000.4,N
1568500135.3,286047003.5,N
1568500155.1,286047005.2,N
1568500175.9,286047004.8,N
1568500195.7,286047005.7,N
1568500215.6,286047003.1,N
1568500235.4,286047001.8,N
1568500255.2,286047001.4,N
1568500275.1,286047005.6,N
1568500276.0,286047005.6,N
1568500295.8,286047005.5,N
1568500315.6,286047005.5,N
1568500335.5,286047005.5,N
1568500355.3,286047005.8,N
1568500375.2,286047005.9,N
1568500395.9,286047005.3,N
1568500415.7,286047007.1,N
1568500435.6,286047004.5,N
1568500455.4,286047004.6,N
1568500475.2,286047003.1,N
1568500495.1,286047002.7,N
1568500496.0,286047002.7,N
1568500515.8,286047002.5,N
1568500535.7,286047003.5,N
1568500555.5,286047003.6,N
1568500575.3,286047003.8,N
1568500595.2,286047001.8,N
1568500615.0,286047001.9,N
1568500615.9,286047001.9,N
1568500635.7,286047002.2,N
1568500655.6,286046999.7,N
1568500675.4,286047000.9,N
1568500695.3,286046998.8,N
1568500715.1,286046995.6,N
1568500716.0,286046995.6,N
1568500735.8,286046995.5,N
1568500755.7,286046993.3,N
1568500775.5,286046994.1,N
1568500795.3,286046994.2,N
1568500815.2,286046994.4,N
1568500835.0,286046995.8,N
1568500835.9,286046995.8,N
1568500855.8,286046997.5,N
1568500875.6,286046998.0,N
1568500895.4,286046997.9,N
1568500915.3,286046997.5,N
1568500935.1,286046994.9,N
1568500955.9,286046996.7,N
1568500975.7,286046996.5,N
1568500995.5,286046999.3,N
1568501015.4,286046994.9,N
1568501035.2,286046993.3,N
1568501055.0,286046990.2,N
1568501055.9,286046990.2,N
1568501075.8,286046988.6,Y
1568501095.6,286046990.4,P
1568501115.5,286046990.5,N
1568501135.3,286046992.8,N
1568501155.1,286046989.3,Y
1568501175.9,286046996.4,P
1568501195.7,286046993.4,P
1568501215.6,286046993.5,P
1568501235.4,286046991.9,Y
1568501255.2,286046999.2,P
1568501275.1,286046998.6,N
1568501276.0,286046998.6,N
1568501295.8,286046999.6,N
1568501315.7,286046993.4,Y
1568501335.5,286046998.0,P
1568501355.3,286046993.3,P
1568501375.2,286046994.2,N
1568501395.0,286046991.3,Y
1568501395.9,286046991.3,P
1568501415.7,286046990.7,P
1568501435.6,286046989.6,P
1568501455.4,286046988.1,Y
1568501475.3,286046995.9,P
1568501495.1,286046997.7,N
1568501515.8,286046995.4,N
1568501535.7,286046998.4,N
1568501555.5,286047000.4,N
1568501575.3,286047002.7,N
1568501595.2,286047002.5,N
1568501615.0,286047002.5,N
1568501615.9,286047002.5,N
1568501635.8,286047004.1,N
1568501655.6,286047003.5,N
1568501675.4,286047003.2,N
1568501695.3,286047005.9,N
1568501715.1,286047007.1,N
1568501735.8,286047006.8,N
1568501755.7,286047008.5,N
1568501775.5,286047009.4,N
1568501825.4,286047010.6,E
1568501835.3,286047007.1,N
1568501855.1,286047000.4,P
1568501875.9,286047002.5,N
1568501895.7,286047004.1,N
1568501915.6,286047005.9,N
1568501935.4,286047005.9,N
1568501955.2,286047007.4,Y
1568501975.1,286047000.7,P
1568501976.0,286047000.7,N
1568501995.8,286046998.5,N
